Location: Huta Gotartowska
(50.0858°N, 18.6021°E)
Time: 07:24:45
(UTC+00:00)

Daily predictions for brighter satellites

Satellite Brightness Start Highest point End
(mag) Time Altitude Azimuth Time Altitude Azimuth Time Altitude Azimuth
Cosmos 1452 Rocket 4.2 15:53:53 10° SW 15:59:04 57° WNW 16:04:18 10° NNE
Cosmos 1356 Rocket 4.4 15:57:15 10° SSW 16:01:27 52° WNW 16:05:41 10° N
H-2A R/B 4.3 15:59:53 10° S 16:03:21 40° W 16:06:53 10° NNW
CZ-2C R/B 4.3 15:59:40 10° ESE 16:04:13 25° ENE 16:08:38 10° N
Cosmos 1953 4.1 16:01:30 10° SW 16:05:09 35° WNW 16:08:51 10° N
Cosmos 1606 Rocket 3.5 16:05:11 10° S 16:09:31 67° E 16:13:56 10° NNE
NOSS 3-4 (A) 4.4 16:05:10 10° NW 16:11:17 37° NNE 16:18:00 10° E
NOSS 3-4 (C) 4.4 16:05:16 10° NW 16:11:23 36° NNE 16:18:05 10° E
YAOGAN 6 3.6 16:12:20 10° S 16:15:56 52° W 16:19:35 10° NNW
FengYun 1-2 T 4.2 16:11:25 10° SSE 16:17:03 76° ENE 16:22:42 10° NNW
USA 305 2.9 16:13:12 10° WNW 16:17:32 77° NNE 16:21:50 10° ESE
SKYMED 2 4.4 16:14:39 10° NNE 16:18:30 30° E 16:22:19 10° SSE
Meteor 2-16 Rocket 4.4 16:13:17 10° N 16:19:25 79° E 16:25:31 10° SSE
Cosmos 292 Rocket 3.7 16:15:15 10° SSW 16:20:02 76° ESE 16:24:53 10° NNE
Cosmos 1943 Rocket 4.4 16:17:09 10° WNW 16:20:40 17° NNW 16:24:11 10° N
Cosmos 1455 3.7 16:21:09 10° SE 16:23:39 17° E 16:26:12 10° NE
SeaSat 1 3.9 16:20:51 12° E 16:23:58 20° NE 16:27:31 10° N
USA 306 2.9 16:19:43 10° WNW 16:24:03 82° NNE 16:28:15 10° ESE
H-2A R/B 3.1 16:20:42 10° ESE 16:25:06 26° ENE 16:29:31 10° N
Aureole 3 Rocket 3.6 16:21:10 10° SSE 16:25:18 50° E 16:31:05 10° NNE
BREEZE-M R/B 4.0 16:15:52 10° W 16:26:31 82° S 16:28:59 15° E
Cosmos 2219 3.3 16:22:27 10° NNW 16:28:15 86° WSW 16:34:01 10° SSE
USA 215 3.8 16:22:49 11° ENE 16:28:49 49° N 16:35:04 10° WNW
Okean-O 3.2 16:25:09 10° SE 16:29:12 37° ENE 16:33:18 10° N
Cosmos 1745 Rocket 4.3 16:23:45 10° N 16:29:46 44° ENE 16:35:47 10° SE
SMAP 3.9 16:25:25 10° S 16:29:59 55° W 16:34:35 10° NNW
ATLAS 5 CENTAUR R/B 3.7 16:27:54 10° WNW 16:31:20 20° NNW 16:35:10 10° NE
Cosmos 1331 Rocket 4.2 16:26:23 10° SSW 16:31:31 72° WNW 16:36:42 10° NNE
ATLAS 2AS CENTAUR R/B 3.5 16:26:08 10° NW 16:33:19 39° NNE 16:38:50 15° E
FALCON 9 DEB 2.9 16:30:11 10° WSW 16:33:24 75° SSE 16:35:34 19° ENE
FALCON 9 DEB 2.9 16:32:12 10° WSW 16:35:24 80° SSE 16:37:27 20° ENE
Cosmos 2082 3.8 16:29:51 10° NNW 16:35:30 55° NE 16:41:07 10° SE
YAOGAN 3 4.5 16:32:13 10° SSE 16:36:33 75° ENE 16:40:56 10° N
Lacrosse 5 2.8 16:32:38 10° WNW 16:37:21 38° N 16:41:00 16° ENE
Cosmos 1953 Rocket 4.2 16:34:14 10° NNW 16:38:36 62° W 16:43:00 10° S
ARGOS 4.1 16:35:50 11° ESE 16:40:05 26° ENE 16:44:30 10° N
GEOS 3 Rocket 4.2 16:36:12 14° E 16:40:23 41° NE 16:45:26 10° NW
Cosmos 1656 3.7 16:36:35 10° S 16:42:02 58° ESE 16:47:36 10° NE
Cosmos 968 Rocket 3.4 16:37:40 10° NNW 16:42:56 81° ENE 16:48:06 10° SSE
Cosmos 1408 3.0 16:40:04 10° N 16:43:33 40° ENE 16:47:01 10° SSE
Cosmos 2058 Rocket 3.0 16:42:52 10° S 16:47:21 82° E 16:51:54 10° NNE
ERBS 3.8 16:46:39 10° NW 16:49:29 25° N 16:50:49 20° NE
ADEOS Rocket 4.2 16:43:48 10° N 16:49:56 50° WNW 16:56:41 10° SW
FALCON 9 DEB 2.9 16:46:49 10° WSW 16:50:04 89° N 16:51:36 29° ENE
Cosmos 1689 Rocket 2.0 16:49:48 11° NNE 16:52:33 53° E 16:55:23 10° S
Cosmos 2369 4.3 16:47:51 10° S 16:52:58 35° ESE 16:57:12 14° NE
USA 281 4.3 16:47:04 10° S 16:53:20 47° WSW 16:59:40 10° NW
Cosmos 1076 Rocket 3.7 16:51:19 10° N 16:55:26 45° ENE 16:59:31 10° SSE
IRS-1C Rocket 4.1 16:51:16 10° SSE 16:56:32 84° WSW 17:01:52 10° NNW
FALCON 9 DEB 3.1 16:55:00 10° WNW 16:58:26 72° NNE 16:59:43 35° E
Cosmos 1709 Rocket 4.3 16:53:12 10° N 16:59:16 43° ENE 17:05:18 10° SE
Cosmos 2227 Rocket 2.6 16:53:39 10° NNW 16:59:17 66° WSW 17:04:52 10° SSE
SL-08 ROCKET BODY 4.4 16:53:10 10° N 16:59:19 78° E 17:05:29 10° SSE
Cosmos 1892 2.7 16:55:41 10° N 16:59:36 87° WSW 17:03:28 10° S
FALCON 9 DEB 2.9 16:56:25 10° WSW 16:59:38 78° NNW 17:00:47 37° ENE
CZ-4C R/B 3.6 16:54:29 10° NW 17:00:27 35° NNE 17:04:27 21° ENE
CSL-04 Rocket 4.0 16:55:53 10° SE 17:01:08 46° ENE 17:06:23 10° N
Cosmos 2263 Rocket 3.0 16:56:20 10° NNW 17:01:23 31° NE 17:03:25 25° E
Cosmos 1939 Rocket 3.1 16:57:50 10° S 17:01:47 70° W 17:05:41 10° NNW
Cosmos 1302 Rocket 4.2 16:58:53 10° SSW 17:04:08 73° WNW 17:09:28 10° NNE
H-2A R/B 4.3 17:01:13 10° N 17:04:34 24° WNW 17:07:51 10° WSW
COSMO-SKYMED 1 2.5 17:02:21 10° NNE 17:06:45 86° ESE 17:11:05 10° SSW
USA 307 3.2 17:03:30 10° WNW 17:07:45 64° SSW 17:10:16 23° SE
SAR-Lupe-4 3.9 17:04:51 10° N 17:08:25 67° WNW 17:11:58 10° SSW
CZ-4B R/B 3.2 17:09:28 10° N 17:12:22 31° WNW 17:15:12 10° SW
USA 308 3.3 17:08:29 10° WNW 17:12:43 60° SSW 17:15:03 25° SE
Cosmos 1400 Rocket 3.7 17:09:20 10° SSW 17:13:21 52° WNW 17:17:21 10° N
Cosmos 1697 Rocket 2.7 17:09:41 10° S 17:15:09 58° ESE 17:19:39 16° NE
Cosmos 1825 2.1 17:11:31 10° N 17:15:17 61° ENE 17:17:29 23° SSE
ERS-2 3.9 17:12:48 10° N 17:16:05 32° WNW 17:19:21 10° SW
Helios 1A Rocket 3.2 17:14:57 10° S 17:19:03 67° WSW 17:23:09 10° NNW
YAOGAN 1 2.5 17:17:04 10° SSE 17:21:24 89° ENE 17:25:46 10° NNW
S3M 3.8 17:16:33 10° S 17:22:39 79° E 17:28:52 10° NNE
Cosmos 1503 Rocket 4.0 17:17:33 10° NNW 17:22:48 81° WSW 17:28:03 10° SSE
BREEZE-M TANK 3.6 17:16:56 10° W 17:23:33 44° SSW 17:25:00 29° SE
Cosmos 2315 Rocket 4.2 17:20:38 10° SSE 17:26:28 46° E 17:32:21 10° NNE
CZ-2D R/B 4.2 17:23:29 10° S 17:27:11 49° W 17:30:54 10° NNW
Cosmos 1812 Rocket 3.4 17:23:46 10° S 17:28:06 64° E 17:32:27 10° NNE
Meteor 2-1 Rocket 4.0 17:23:09 10° S 17:28:40 81° E 17:34:14 10° NNE
CZ-4 R/B 1.7 17:26:06 10° S 17:29:56 62° W 17:33:46 10° NNW
Cosmos 1346 Rocket 3.8 17:30:23 10° NNW 17:34:14 47° W 17:38:04 10° S
Cosmos 2058 3.7 17:30:58 10° NNW 17:34:58 52° W 17:38:57 10° S
Cosmos 1354 Rocket 4.2 17:30:20 10° NNW 17:35:36 73° WSW 17:40:51 10° SSE
SL-4 R/B 1.7 17:32:47 10° WNW 17:36:23 70° SSW 17:36:32 69° S
Cosmos 2151 3.1 17:33:54 10° N 17:37:31 54° NE 17:37:31 54° NE
Cosmos 2297 Rocket 4.1 17:33:38 10° NW 17:38:27 29° WSW 17:43:13 10° SSW
Cosmos 1980 Rocket 2.3 17:33:25 10° S 17:38:48 48° ESE 17:39:22 47° E
SJ-11-01 4.2 17:35:51 15° SSE 17:39:46 89° ENE 17:44:30 10° NNW
Cosmos 1992 Rocket 4.0 17:35:26 10° SSW 17:40:38 83° WNW 17:45:23 13° NNE
Timation 1 Rocket 4.4 17:36:01 10° NNW 17:42:04 80° WSW 17:46:16 21° SSE
Meteor 2-15 Rocket 4.4 17:37:06 10° S 17:43:16 84° WNW 17:49:27 10° N
CZ-2C R/B 3.6 17:37:54 10° S 17:43:40 68° WSW 17:49:14 10° NNW
CSL-04 Debris 4.2 17:38:39 10° SSE 17:44:06 83° WSW 17:49:37 10° NNW
Cosmos 1315 Rocket 3.2 17:43:09 10° SSW 17:47:05 63° WNW 17:51:06 10° N
CRYOSAT 2 4.4 17:44:26 10° N 17:49:19 79° W 17:54:10 10° SSW
Ariane Rocket 3.6 17:53:41 40° NNE 17:53:41 40° NNE 17:57:29 10° N
Geosat 3.9 17:52:54 63° ESE 17:52:54 63° ESE 17:57:47 10° SSW
Cosmos 2227 4.1 17:50:32 10° NNW 17:56:10 66° ENE 17:56:38 63° E
BREEZE-M R/B 4.0 17:52:26 10° W 17:56:46 66° SSW 17:59:00 43° SE
Meteor 2-10 Rocket 4.2 17:51:56 10° SSW 17:57:04 53° WNW 18:02:03 10° N
USA 305 4.3 17:53:28 10° WNW 17:57:19 32° SW 17:58:11 29° SSW
Cosmos 1455 3.3 17:55:19 10° SSW 17:58:56 43° WNW 18:02:37 10° N
SeaSat 1 2.3 18:00:38 78° ESE 18:00:53 82° ENE 18:05:51 10° NNW
Cosmos 2360 4.1 17:56:20 10° SSW 18:02:04 86° WNW 18:04:36 35° NNE
NOSS 3-4 (A) 3.7 17:56:04 10° NW 18:02:59 90° SW 18:05:39 45° SE
NOSS 3-4 (C) 3.7 17:56:10 10° NW 18:03:05 90° SW 18:05:43 45° SE
USA 306 4.4 18:00:03 10° WNW 18:03:46 29° SW 18:04:25 27° SSW
H-2A R/B 2.6 17:58:45 10° S 18:04:07 62° W 18:09:34 10° NNW
DEBRIS 4.1 17:49:00 10° WSW 18:05:52 71° SSE 18:06:53 60° ESE
MOS 1 Rocket 3.5 18:02:41 10° N 18:07:22 72° WNW 18:12:20 10° SSW
IRS-1A Rocket 4.3 18:10:51 61° NNE 18:10:51 61° NNE 18:15:43 10° N
USA 215 3.3 18:10:10 55° ENE 18:11:21 64° NNE 18:17:49 10° WNW
Cosmos 2278 3.5 18:06:36 10° SSW 18:12:18 86° ESE 18:12:45 76° NE
NOSS 3-3 (A) 4.1 18:07:46 10° SW 18:13:43 74° NW 18:16:10 41° NNE
MOS 1 4.5 18:14:39 57° NNE 18:14:39 57° NNE 18:19:25 10° N
NOSS 3-3 (C) 4.1 18:07:52 10° SW 18:13:49 74° NW 18:16:14 41° NNE
ATLAS 5 CENTAUR R/B 3.8 18:14:01 10° NW 18:17:34 20° N 18:17:34 20° N
GEOS 3 Rocket 4.0 18:17:20 52° S 18:18:16 60° SW 18:23:37 10° NW
Meteor 2-3 Rocket 3.6 18:13:49 10° NNW 18:19:35 88° ENE 18:19:36 88° E
ARGOS 3.6 18:17:21 30° S 18:19:58 61° W 18:25:23 10° NNW
COSMOS 2455 4.3 18:15:27 10° NNW 18:19:43 25° NNE 18:19:43 25° NNE
Cosmos 44 Rocket 3.8 18:16:13 10° SW 18:19:57 54° WSW 18:19:57 54° WSW
Lacrosse 5 2.4 18:16:03 10° NW 18:20:11 51° NNW 18:20:11 51° NNW
ATLAS 2AS CENTAUR R/B 2.7 18:17:30 10° NW 18:25:06 85° SW 18:26:17 66° SSE
Cosmos 2278 Rocket 4.4 18:23:17 10° N 18:24:58 13° NNE 18:24:58 13° NNE
Cosmos 1844 Rocket 4.1 18:28:37 10° NNW 18:31:39 26° N 18:31:39 26° N
SJ 16-02 3.7 18:32:45 10° NNW 18:33:43 16° N 18:33:43 16° N
Cosmos 2184 Rocket 4.2 18:35:13 10° N 18:40:24 62° N 18:40:24 62° N
Cosmos 2263 Rocket 2.7 18:40:04 10° NW 18:45:08 58° W 18:45:08 58° W
CZ-4C R/B 2.8 18:42:58 10° NW 18:49:38 78° N 18:49:38 78° N
Cosmos 2074 Rocket 4.5 18:53:13 10° NNW 18:58:06 55° NW 18:58:06 55° NW
Cosmos 1697 Rocket 4.2 18:54:29 10° WSW 18:59:28 32° NW 19:01:26 25° N
Cosmos 1980 Rocket 3.8 19:17:49 10° WSW 19:21:13 29° W 19:21:13 29° W
